New Roads False River Regiona, LA

9:15 PM CST on December 05, 2019 (GMT -0600)
False River

Weather History for KHZR - August, 2019

Change the Weather History Date:

Tuesday, August 6, 2019

  Actual Average (KBTR) Record (KBTR)
Temperature  
Mean Temperature 82 °F 83 °F  
Max Temperature 89 °F 93 °F 102 °F (1921)
Min Temperature 75 °F 74 °F 65 °F (1912)
Degree Days  
Heating Degree Days 0 0  
Month to date heating degree days 0  
Since 1 June heating degree days 0  
Since 1 July heating degree days 0  
Cooling Degree Days 17 18  
Month to date cooling degree days 108  
Year to date cooling degree days 1713  
Since 1 June cooling degree days 1148  
Growing Degree Days 32 (Base 50)    
Moisture  
Dew Point 75 °F    
Average Humidity 81    
Maximum Humidity 100    
Minimum Humidity 59    
Precipitation  
Precipitation 0.00 in 0.19 in 2.56 in (1928)
Month to date precipitation 1.13  
Year to date precipitation 37.02  
Snow  
Snow 0.00 in - - ()
Month to date snowfall  
Since 1 June snowfall  
Since 1 July snowfall  
Snow Depth -    
Sea Level Pressure  
Sea Level Pressure 29.96 in    
Wind  
Wind Speed 1 mph (West)    
Max Wind Speed 7 mph    
Max Gust Speed -    
Visibility 10 miles    
Events      
T = Trace of Precipitation, MM = Missing Value Source: NWS Daily Summary

Daily Weather History Graph

Daily Weather History Graph

Search for Another Location

Airport or City:

Astronomy

Aug. 06, 2019 Rise Set
Actual Time 6:26 AM CDT 7:56 PM CDT
Civil Twilight 6:00 AM CDT 8:22 PM CDT
Nautical Twilight 5:29 AM CDT 8:53 PM CDT
Astronomical Twilight 4:57 AM CDT 9:25 PM CDT
Moon 12:26 PM CDT No Moon Set
Length of Visible Light 14h 21m
Length of Day
13h 29m
Waxing Crescent, 39% of the Moon is Illuminated
Aug 6
Waxing Crescent
Aug 7
First Quarter
Aug 15
Full
Aug 23
Last Quarter
Aug 30
New

Hourly Weather History & Observations

Time (CDT) Temp. Heat Index Dew Point Humidity Pressure Visibility Wind Dir Wind Speed Gust Speed Precip Events Conditions
12:16 AM 77.0 °F - 77.0 °F 100% 29.96 in 10.0 mi Calm Calm - N/A   Clear
12:56 AM 77.0 °F - 77.0 °F 100% 29.95 in 10.0 mi SSE 3.5 mph - N/A   Clear
1:15 AM 78.8 °F - 77.0 °F 94% 29.95 in 10.0 mi South 3.5 mph - N/A   Clear
1:36 AM 78.8 °F - 77.0 °F 94% 29.96 in 10.0 mi Calm Calm - N/A   Clear
1:55 AM 77.0 °F - 77.0 °F 100% 29.95 in 10.0 mi Calm Calm - N/A   Clear
2:37 AM 77.0 °F - 75.2 °F 94% 29.94 in 10.0 mi Calm Calm - N/A   Clear
2:55 AM 75.2 °F - 75.2 °F 100% 29.94 in 10.0 mi Calm Calm - N/A   Clear
3:16 AM 75.2 °F - 75.2 °F 100% 29.95 in 10.0 mi Calm Calm - N/A   Clear
3:35 AM 75.2 °F - 75.2 °F 100% 29.95 in 10.0 mi Calm Calm - N/A   Clear
3:56 AM 75.2 °F - 75.2 °F 100% 29.96 in 10.0 mi Calm Calm - N/A   Clear
4:16 AM 75.2 °F - 75.2 °F 100% 29.96 in 7.0 mi Calm Calm - N/A   Clear
4:38 AM 75.2 °F - 75.2 °F 100% 29.96 in 10.0 mi Calm Calm - N/A   Clear
4:55 AM 75.2 °F - 75.2 °F 100% 29.96 in 10.0 mi Calm Calm - N/A   Clear
5:16 AM 75.2 °F - 75.2 °F 100% 29.97 in 7.0 mi Calm Calm - N/A   Clear
5:36 AM 75.2 °F - 73.4 °F 94% 29.97 in 10.0 mi Calm Calm - N/A   Clear
5:58 AM 75.2 °F - 75.2 °F 100% 29.97 in 7.0 mi Calm Calm - N/A   Clear
6:16 AM 75.2 °F - 73.4 °F 94% 29.98 in 7.0 mi Calm Calm - N/A   Clear
6:55 AM 75.2 °F - 75.2 °F 100% 29.98 in 4.0 mi Calm Calm - N/A   Clear
7:16 AM 75.2 °F - 75.2 °F 100% 29.99 in 10.0 mi Calm Calm - N/A   Clear
7:36 AM 77.0 °F - 77.0 °F 100% 30.00 in 10.0 mi Calm Calm - N/A   Clear
7:56 AM 78.8 °F - 77.0 °F 94% 30.00 in 10.0 mi Calm Calm - N/A   Clear
8:15 AM 78.8 °F - 77.0 °F 94% 30.00 in 10.0 mi Calm Calm - N/A   Clear
8:36 AM 80.6 °F 88.1 °F 78.8 °F 94% 30.00 in 10.0 mi Calm Calm - N/A   Clear
8:55 AM 82.4 °F 90.9 °F 77.0 °F 84% 30.01 in 10.0 mi West 3.5 mph - N/A   Clear
9:16 AM 82.4 °F 92.4 °F 78.8 °F 89% 30.01 in 10.0 mi Calm Calm - N/A   Scattered Clouds
9:35 AM 82.4 °F 90.9 °F 77.0 °F 84% 30.01 in 10.0 mi West 5.8 mph - N/A   Mostly Cloudy
9:55 AM 84.2 °F 94.1 °F 77.0 °F 79% 30.01 in 10.0 mi West 5.8 mph - N/A   Overcast
10:17 AM 84.2 °F 92.3 °F 75.2 °F 74% 30.01 in 10.0 mi West 4.6 mph - N/A   Mostly Cloudy
10:35 AM 84.2 °F 92.3 °F 75.2 °F 74% 30.00 in 10.0 mi West 5.8 mph - N/A   Mostly Cloudy
10:56 AM 87.8 °F 97.6 °F 75.2 °F 66% 30.00 in 10.0 mi West 4.6 mph - N/A   Mostly Cloudy
11:16 AM 87.8 °F 97.6 °F 75.2 °F 66% 30.00 in 10.0 mi SW 4.6 mph - N/A   Scattered Clouds
11:58 AM 89.6 °F 98.2 °F 73.4 °F 59% 29.99 in 10.0 mi West 6.9 mph - N/A   Scattered Clouds
12:15 PM 89.6 °F 99.8 °F 75.2 °F 62% 29.99 in 10.0 mi West 4.6 mph - N/A   Scattered Clouds
12:36 PM 87.8 °F 95.6 °F 73.4 °F 62% 29.98 in 10.0 mi WNW 3.5 mph - N/A   Scattered Clouds
12:57 PM 89.6 °F 99.8 °F 75.2 °F 62% 29.97 in 10.0 mi SW 3.5 mph - N/A   Clear
1:16 PM 89.6 °F 99.8 °F 75.2 °F 62% 29.97 in 10.0 mi West 3.5 mph - N/A   Scattered Clouds
1:35 PM 89.6 °F 98.2 °F 73.4 °F 59% 29.97 in 10.0 mi Calm Calm - N/A   Mostly Cloudy
1:56 PM 89.6 °F 99.8 °F 75.2 °F 62% 29.96 in 10.0 mi WNW 4.6 mph - N/A   Mostly Cloudy
2:36 PM 89.6 °F 98.2 °F 73.4 °F 59% 29.94 in 10.0 mi Calm Calm - N/A   Clear
2:56 PM 89.6 °F 99.8 °F 75.2 °F 62% 29.94 in 10.0 mi NW 4.6 mph - N/A   Clear
3:15 PM 89.6 °F 99.8 °F 75.2 °F 62% 29.94 in 10.0 mi WNW 3.5 mph - N/A   Clear
3:36 PM 89.6 °F 99.8 °F 75.2 °F 62% 29.93 in 10.0 mi Calm Calm - N/A   Clear
3:55 PM 89.6 °F 98.2 °F 73.4 °F 59% 29.93 in 10.0 mi WNW 3.5 mph - N/A   Clear
4:15 PM 89.6 °F 98.2 °F 73.4 °F 59% 29.93 in 10.0 mi WNW 3.5 mph - N/A   Clear
4:36 PM 89.6 °F 99.8 °F 75.2 °F 62% 29.92 in 10.0 mi NW 3.5 mph - N/A   Clear
4:55 PM 89.6 °F 99.8 °F 75.2 °F 62% 29.92 in 10.0 mi NNW 4.6 mph - N/A   Clear
5:16 PM 89.6 °F 99.8 °F 75.2 °F 62% 29.92 in 10.0 mi Calm Calm - N/A   Clear
5:37 PM 89.6 °F 99.8 °F 75.2 °F 62% 29.92 in 10.0 mi Calm Calm - N/A   Clear
5:56 PM 89.6 °F 99.8 °F 75.2 °F 62% 29.92 in 10.0 mi Calm Calm - N/A   Clear
6:16 PM 87.8 °F 97.6 °F 75.2 °F 66% 29.92 in 10.0 mi Calm Calm - N/A   Clear
6:36 PM 87.8 °F 97.6 °F 75.2 °F 66% 29.91 in 10.0 mi Calm Calm - N/A   Clear
6:55 PM 87.8 °F 97.6 °F 75.2 °F 66% 29.90 in 10.0 mi Calm Calm - N/A   Scattered Clouds
7:15 PM 84.2 °F 94.1 °F 77.0 °F 79% 29.91 in 10.0 mi SSW 4.6 mph - N/A   Mostly Cloudy
7:36 PM 82.4 °F 90.9 °F 77.0 °F 84% 29.90 in 10.0 mi Calm Calm - N/A   Scattered Clouds
7:56 PM 82.4 °F 89.5 °F 75.2 °F 79% 29.91 in 10.0 mi South 4.6 mph - N/A   Clear
8:16 PM 80.6 °F 86.2 °F 75.2 °F 84% 29.91 in 10.0 mi SSW 3.5 mph - N/A   Clear
8:35 PM 80.6 °F 87.1 °F 77.0 °F 89% 29.92 in 10.0 mi Calm Calm - N/A   Clear
9:16 PM 80.6 °F 86.2 °F 75.2 °F 84% 29.93 in 10.0 mi Calm Calm - N/A   Clear
9:36 PM 80.6 °F 86.2 °F 75.2 °F 84% 29.93 in 10.0 mi Calm Calm - N/A   Clear
9:55 PM 80.6 °F 86.2 °F 75.2 °F 84% 29.94 in 10.0 mi Calm Calm - N/A   Clear
10:15 PM 80.6 °F 86.2 °F 75.2 °F 84% 29.94 in 10.0 mi Calm Calm - N/A   Clear
10:55 PM 78.8 °F - 75.2 °F 89% 29.94 in 10.0 mi Calm Calm - N/A   Clear
11:16 PM 77.0 °F - 75.2 °F 94% 29.94 in 10.0 mi Calm Calm - N/A   Clear
11:35 PM 78.8 °F - 75.2 °F 89% 29.94 in 10.0 mi South 3.5 mph - N/A   Clear
11:56 PM 78.8 °F - 75.2 °F 89% 29.94 in 10.0 mi South 3.5 mph - N/A   Clear